RH
25 24 22 61 94 97 100 82 72 85 85 100 100 49 32 14 97 100 100 100 100 99 98 100 100 100 100 100 99 95 100 99 97 96 97 94 98 99 100 100 100 100 100 100 100 100 80 64 78 93 85 90 88 81
29 27 23 30 63 69 68 96 100 89 82 100 100 99 55 86 90 100 100 100 100 100 100 100 100 100 100 100 100 100 93 96 100 100 93 98 86 83 82 90 97 99 98 100 100 99 95 85 77 68 66 67 63 61
40 32 27 25 47 51 100 97 100 94 93 100 100 100 100 95 95 84 100 100 100 100 100 100 100 100 100 100 100 100 100 99 95 100 100 100 96 96 91 80 93 94 94 98 100 88 85 80 75 68 65 65 68 70
62 44 35 26 27 48 80 100 100 100 99 100 98 98 91 100 100 97 95 100 100 100 100 100 98 96 97 100 100 100 100 100 100 100 100 100 96 100 96 86 100 100 100 97 88 80 79 73 69 66 66 64 64 64
90 67 48 37 26 43 56 88 100 100 100 100 100 100 98 100 100 90 89 100 100 100 100 100 100 100 100 100 100 100 100 100 100 100 100 96 94 94 95 100 100 99 98 98 88 86 81 70 63 61 60 56 52 61
86 91 73 54 41 28 40 37 65 100 91 100 100 100 94 100 92 100 100 100 100 100 100 100 99 100 100 100 100 100 100 100 100 100 100 100 96 100 100 100 100 100 100 100 100 96 83 75 70 63 59 58 57 56
87 84 92 81 63 48 34 44 40 54 49 56 88 99 98 93 95 92 100 100 100 100 100 100 100 100 100 100 100 100 100 98 100 100 100 100 100 100 100 100 95 96 96 98 97 92 91 89 80 73 65 60 60 62
85 87 87 94 90 73 60 44 34 38 51 56 54 55 65 81 99 96 88 99 100 100 100 100 100 100 100 100 100 100 100 100 100 100 100 100 100 98 100 96 90 82 76 77 76 70 69 74 73 68 66 65 63 62
71 72 86 93 95 92 79 66 54 44 38 35 32 39 53 49 47 52 62 77 89 100 100 100 100 100 99 100 100 100 100 100 100 100 100 100 100 100 97 97 91 80 73 69 66 65 62 58 56 55 56 55 55 56
73 69 84 91 99 98 91 82 69 54 48 46 44 39 37 37 20 29 55 44 56 57 87 99 100 100 100 100 100 100 100 100 100 100 100 100 100 100 100 100 100 95 91 87 79 80 82 80 83 84 85 88 79 73
66 76 79 92 96 100 100 86 77 67 56 54 53 51 48 46 43 41 32 21 27 45 49 55 62 71 88 96 99 100 100 100 100 100 100 100 100 100 100 100 100 100 100 100 100 100 100 100 100 100 100 100 100 100
85 87 92 100 95 97 99 92 84 73 65 61 58 51 49 49 50 53 46 45 43 35 19 15 17 28 40 52 59 62 71 83 95 97 100 100 100 100 100 100 100 100 100 100 100 100 100 100 100 100 100 100 100 100
91 95 100 100 100 94 92 93 86 76 75 67 57 50 54 60 61 61 60 57 54 52 52 49 43 38 28 22 19 21 26 36 44 51 55 62 71 80 87 94 100 100 100 100 100 100 100 100 100 100 100 100 100 100
85 100 100 100 100 100 98 92 82 81 74 64 56 58 62 61 60 56 51 46 43 39 39 41 43 47 46 48 49 50 48 47 44 36 29 27 25 25 25 30 36 40 48 62 74 82 88 93 95 96 97 98 99 99
100 100 100 100 98 97 92 93 89 77 67 60 58 60 57 46 31 26 20 14 11 10 9 9 8 8 9 9 9 10 10 11 12 14 16 18 18 21 23 24 24 24 22 21 20 20 20 21 20 22 24 24 25 28
100 98 94 95 92 87 88 86 71 63 58 57 51 35 18 14 13 12 12 13 14 16 19 22 26 28 33 38 40 43 44 43 41 38 33 31 29 26 23 20 19 17 15 15 15 15 14 12 10 10 10 11 10 10
75 85 98 96 82 72 72 64 59 50 41 19 12 12 15 21 28 36 40 46 52 54 56 55 55 55 54 53 52 48 47 45 43 42 40 39 38 37 36 35 34 34 33 33 32 32 30 28 26 25 24 26 23 22
90 79 72 65 60 55 46 34 19 13 13 18 26 37 46 52 56 58 57 56 56 52 47 41 38 37 36 36 35 34 33 32 31 30 30 28 27 25 24 23 22 22 21 21 20 20 20 20 20 21 21 21 21 21
69 64 54 44 36 16 12 13 18 24 35 45 51 54 55 56 56 56 53 48 42 40 40 39 37 36 35 36 36 34 33 33 35 39 37 33 31 30 28 26 24 22 20 19 17 17 16 16 16 17 18 18 17 18
42 24 18 10 10 15 21 30 39 47 47 49 48 49 52 55 55 50 44 42 43 44 44 44 46 48 48 48 48 49 51 50 48 52 46 38 34 33 31 27 22 20 18 17 15 14 13 13 14 14 14 14 14 14
9 8 9 14 23 30 39 43 44 42 44 45 47 52 56 57 53 46 46 48 52 53 55 51 49 53 56 59 61 62 60 51 38 36 41 48 45 39 32 26 23 21 19 16 15 15 15 14 14 14 15 14 14 15
9 11 14 22 38 43 39 40 43 44 47 48 52 58 60 59 53 50 50 58 57 59 60 60 66 71 71 68 68 66 55 46 50 56 59 58 59 57 51 39 34 32 28 23 21 22 23 24 24 25 25 24 23 22
12 15 27 30 19 15 24 39 47 50 54 58 62 65 66 67 59 54 53 54 61 68 68 63 67 74 77 77 75 71 61 60 70 79 79 70 62 61 64 56 46 43 42 40 39 40 43 44 45 45 44 42 42 40
17 21 15 16 13 17 25 47 55 60 64 66 66 68 72 73 69 61 55 57 65 75 77 80 81 79 82 82 82 81 76 71 72 77 80 77 74 75 74 72 68 64 61 61 63 66 68 67 69 70 70 69 66 63
16 19 16 15 17 22 30 40 58 67 72 73 72 70 72 72 69 66 62 61 65 80 87 81 84 88 89 88 85 84 82 80 78 79 78 82 85 89 84 78 76 76 80 82 84 86 86 85 83 82 83 81 78 75
19 19 16 16 17 21 22 37 53 72 74 72 71 74 73 70 69 70 70 67 67 75 96 99 92 85 88 91 90 89 89 86 81 79 79 78 83 90 94 88 82 77 76 77 81 85 88 90 92 95 96 94 94 92
16 15 15 16 17 20 24 31 45 58 66 71 74 77 75 78 80 79 76 76 76 74 79 97 99 93 88 84 84 84 84 84 84 86 84 78 80 88 94 92 87 84 82 80 82 85 88 89 88 87 86 85 86 84
11 12 14 16 18 19 21 22 22 35 56 70 81 83 86 90 90 91 88 82 77 79 79 82 96 100 98 95 95 89 84 81 80 79 77 85 88 90 97 95 88 88 90 89 91 95 100 100 100 100 100 100 100 100
11 12 14 14 16 18 17 18 20 30 47 70 79 81 88 89 92 96 99 96 90 87 86 84 85 90 99 100 100 98 97 96 93 94 98 100 100 100 100 100 97 95 98 99 99 99 100 100 100 100 100 100 100 100
12 12 12 13 14 15 17 18 20 23 31 45 66 80 88 93 97 100 100 100 98 96 98 100 100 99 99 97 100 100 100 100 100 100 100 100 100 94 97 100 100 100 100 100 100 100 100 100 100 100 100 100 100 100
12 12 12 12 13 14 15 17 19 20 22 27 42 64 84 95 100 100 100 100 100 100 96 97 100 100 100 100 100 99 94 95 99 100 98 96 95 91 99 100 96 95 99 100 100 100 100 100 100 100 99 97 96 93
13 12 13 13 14 15 16 17 18 18 18 21 26 38 58 85 96 98 98 99 100 100 100 100 100 100 100 100 100 100 100 100 100 96 92 90 93 99 96 92 93 95 97 100 100 100 97 93 91 89 87 84 81 78
16 12 13 15 16 17 18 19 19 19 18 19 20 24 31 41 61 83 96 99 100 100 100 96 93 95 96 93 92 94 98 100 99 97 94 93 94 92 89 86 86 86 87 88 88 86 84 82 80 76 72 70 66 62
Wind_Speed
42 43 30 9 12 17 24 28 28 28 21 17 11 30 51 74 67 62 52 65 63 68 62 62 49 43 39 39 41 49 57 64 63 66 63 61 62 64 67 68 66 63 61 61 60 62 62 60 62 62 58 57 57 59
39 40 40 19 11 16 23 28 32 22 1 11 11 25 35 47 51 69 58 58 62 63 57 57 48 44 38 35 34 40 47 53 59 60 63 64 65 65 62 61 63 67 64 62 63 63 59 62 65 68 67 66 66 67
32 37 40 32 15 10 19 24 21 24 9 13 11 29 29 34 49 79 59 52 43 47 56 60 59 49 41 39 36 36 37 41 42 41 40 42 50 55 60 62 61 61 62 64 64 66 65 65 67 68 67 65 65 64
28 31 34 37 24 11 12 20 18 15 15 16 19 17 24 22 25 35 54 59 48 41 49 56 64 64 68 46 39 41 40 33 35 35 34 36 38 41 43 47 50 52 52 57 62 65 64 64 64 64 66 66 68 69
26 25 28 31 33 3 3 8 12 9 14 8 8 11 14 24 27 24 46 63 56 49 43 48 55 59 56 55 57 49 50 48 43 43 44 41 43 43 46 48 50 51 52 53 54 54 55 56 57 60 63 66 67 65
26 24 22 23 26 28 5 5 6 5 6 0 8 12 9 14 23 36 38 34 37 40 45 46 46 49 51 56 56 51 50 51 50 47 46 47 46 47 49 52 50 51 52 50 51 52 53 55 56 57 59 60 61 62
27 23 20 19 19 20 21 5 8 7 9 11 12 9 12 13 21 38 39 37 41 49 45 43 47 53 45 47 53 57 56 50 47 47 49 49 50 50 51 52 53 54 56 57 56 55 57 58 58 59 62 64 64 64
26 24 20 18 17 16 15 16 14 4 17 18 19 18 19 19 18 23 35 39 37 42 54 50 48 44 43 45 45 44 47 50 48 48 50 50 52 55 56 58 60 60 60 60 60 62 64 66 68 69 70 69 70 70
23 25 23 20 16 14 14 13 13 12 10 7 5 20 31 30 27 27 27 32 37 45 49 46 39 43 51 47 48 51 53 56 55 55 57 56 58 62 63 63 64 67 69 71 71 71 71 72 73 76 78 80 81 81
22 26 26 22 17 13 13 13 13 14 13 11 8 5 4 7 11 26 33 30 31 33 34 46 52 51 50 51 50 50 54 56 58 60 59 60 61 62 65 66 68 69 71 71 71 72 75 77 78 79 80 80 82 83
21 26 29 25 18 14 14 14 14 15 16 14 11 8 7 8 9 12 16 19 27 34 38 42 43 46 52 55 59 63 62 61 64 66 67 69 71 72 73 74 75 76 78 79 80 81 83 85 85 86 87 87 87 86
22 26 28 25 19 15 17 17 17 18 18 15 12 13 14 14 13 14 16 19 22 22 23 26 34 43 51 56 58 60 63 68 73 76 78 81 80 81 80 81 83 84 85 87 87 88 89 89 90 89 89 89 89 88
22 24 27 21 18 17 20 20 20 21 18 17 19 20 17 14 11 11 13 15 18 21 24 26 28 30 31 34 40 46 53 61 66 69 73 77 80 81 82 83 86 90 92 93 92 92 93 94 95 97 98 99 99 99
21 25 23 18 18 20 23 23 21 20 21 23 23 19 13 12 11 12 14 15 17 20 22 25 28 31 34 36 39 42 47 49 52 53 55 58 63 68 72 76 80 82 86 89 93 96 100 104 105 105 105 104 104 105
23 21 20 21 22 22 22 21 22 24 25 25 22 17 18 17 19 21 22 24 25 27 29 31 33 35 37 39 42 45 47 51 54 56 58 60 63 65 68 70 72 75 77 79 82 83 85 87 90 92 95 98 99 100
19 21 21 21 22 23 25 26 26 26 26 24 22 23 24 25 25 25 25 25 25 25 25 27 28 29 31 33 35 38 40 44 46 50 54 57 60 62 65 68 71 74 77 79 81 83 84 86 88 88 89 90 92 93
20 20 20 23 27 28 27 27 27 28 29 28 27 25 22 19 18 18 19 21 24 26 28 29 29 30 31 33 34 37 39 42 44 46 50 53 55 58 61 65 67 70 73 76 79 82 84 87 89 90 90 90 93 93
21 25 26 25 24 25 27 29 29 28 24 20 17 17 18 20 20 20 20 21 21 21 22 22 23 25 28 30 33 35 37 39 43 45 47 51 54 56 58 61 64 67 70 73 76 79 81 84 86 87 88 88 89 89
24 22 22 25 28 30 30 28 23 21 19 20 20 20 20 21 21 21 21 20 20 20 21 22 23 25 27 29 31 33 34 34 35 39 43 45 47 50 54 58 61 64 67 69 72 74 77 79 80 81 82 83 83 83
20 23 28 29 27 24 23 22 23 22 22 22 22 23 22 21 21 21 21 21 22 22 22 23 25 26 27 27 27 27 29 30 31 32 35 38 40 43 47 50 54 57 60 63 66 69 70 71 73 74 75 76 76 76
26 26 25 23 25 27 25 22 20 21 22 22 22 23 23 24 24 23 23 23 23 21 21 23 24 22 21 20 21 22 23 24 26 25 24 26 30 33 36 38 39 40 42 43 45 49 51 52 53 55 56 57 58 59
26 26 28 28 25 20 19 22 25 26 25 25 25 26 26 26 25 25 25 23 21 21 24 26 24 22 21 20 20 21 22 22 22 23 27 28 28 29 32 33 32 31 31 29 26 24 22 21 21 22 23 25 27 30
30 30 26 22 26 31 32 32 29 27 27 28 28 27 27 26 25 25 24 23 22 22 25 27 24 21 21 21 21 22 23 22 22 23 24 24 24 26 28 28 27 26 25 24 21 20 17 14 11 7 4 1 2 5
33 24 27 34 36 35 36 35 33 32 32 30 30 29 28 27 26 27 27 25 24 24 26 29 29 26 23 22 23 24 24 24 21 20 21 22 23 26 26 26 25 25 25 25 24 23 21 20 19 17 16 14 12 10
29 32 36 36 36 37 38 40 39 36 33 31 30 30 29 28 27 29 30 28 26 26 27 28 28 27 25 23 22 22 22 22 20 19 19 19 20 22 23 23 24 24 24 24 24 23 23 22 21 20 19 17 16 14
38 41 41 40 38 38 39 40 40 37 34 32 32 32 31 31 31 31 31 31 29 26 26 28 30 29 26 23 22 22 23 22 22 21 20 19 20 22 23 23 22 23 23 23 23 23 22 21 20 19 18 17 16 15
44 44 43 42 41 40 39 40 39 38 37 35 35 33 33 35 34 34 34 34 32 29 26 26 28 30 30 28 24 22 22 21 20 21 21 21 22 22 22 21 21 21 21 21 21 21 20 20 19 19 18 18 17 16
45 45 44 43 42 42 40 39 40 42 42 41 39 38 37 37 36 36 36 37 37 33 30 27 25 27 29 31 30 27 25 24 24 23 23 24 24 22 22 21 20 20 20 20 20 20 19 19 19 19 18 18 17 17
45 46 46 46 45 44 43 43 43 43 43 42 41 40 39 38 39 39 38 38 40 39 36 32 29 27 25 27 29 28 26 25 24 24 23 23 21 20 19 19 18 19 19 19 18 18 18 18 18 18 18 18 19 19
43 45 46 47 47 47 46 46 44 43 43 44 44 43 42 41 40 39 39 40 41 41 39 37 34 33 31 30 29 28 26 22 21 20 19 19 18 18 20 19 18 18 19 19 19 18 18 19 19 19 19 19 19 19
42 43 44 45 46 47 47 47 45 44 45 45 45 45 45 44 42 40 39 39 40 42 43 41 37 35 34 32 31 30 28 25 20 18 17 16 15 17 17 15 16 17 18 18 18 18 18 18 18 18 18 18 17 17
41 41 43 43 44 45 46 46 46 46 46 46 46 46 45 45 44 43 43 42 41 41 42 42 40 37 34 31 29 27 26 24 22 18 18 18 17 15 14 15 16 16 16 16 16 15 16 16 17 17 17 17 16 16
41 40 41 42 42 43 44 44 45 46 46 46 47 47 46 46 46 46 46 45 44 43 43 43 43 41 39 36 33 29 25 22 19 16 14 14 14 13 14 14 15 15 15 14 14 14 14 14 14 14 15 16 16 17
Wind_Direction
2 2 354 303 320 338 344 338 329 320 319 213 208 202 200 197 201 204 206 214 219 221 222 225 224 223 221 224 232 237 237 237 237 239 243 245 246 246 247 245 245 245 245 245 246 247 247 249 248 252 255 254 254 255
1 4 5 340 294 355 353 359 351 1 288 178 179 186 195 200 206 202 199 208 214 219 221 220 218 218 223 226 228 232 238 239 240 240 240 240 242 242 242 243 246 247 249 251 251 252 250 250 252 253 253 254 256 259
358 4 9 4 318 328 0 12 32 27 89 118 138 162 179 198 201 210 199 198 202 209 219 227 231 222 213 243 234 229 230 232 236 237 236 236 239 243 245 246 247 247 248 250 251 249 250 249 250 252 254 256 257 257
354 1 8 12 5 359 357 12 40 55 59 103 133 156 192 187 194 215 208 205 209 210 218 220 228 235 237 226 227 226 218 219 223 223 227 232 234 238 236 240 240 241 243 247 251 252 252 251 251 251 253 256 258 259
352 356 5 13 16 26 53 32 10 53 88 133 178 153 203 201 197 194 206 214 222 217 222 226 228 231 225 228 237 239 228 229 233 233 235 235 234 235 235 234 237 239 241 245 248 248 251 251 251 252 254 255 257 259
351 351 357 7 16 19 313 160 202 338 307 123 185 172 196 193 193 184 180 203 213 222 225 231 232 236 237 243 235 234 237 235 237 237 235 237 240 239 240 239 241 244 245 247 250 252 251 250 251 251 251 252 252 254
348 350 350 357 7 17 25 270 230 244 241 260 271 250 241 227 203 197 207 199 200 211 210 216 215 221 224 229 234 235 237 244 240 242 243 245 243 244 247 247 245 247 249 250 251 253 253 252 253 255 256 256 257 257
350 352 351 350 354 1 15 21 26 303 245 249 241 241 234 240 230 215 219 223 219 220 220 224 223 223 218 218 218 219 223 231 235 240 243 245 247 250 253 253 251 249 249 250 254 257 259 258 256 256 256 256 256 257
355 355 349 345 343 347 353 3 9 12 7 356 304 254 248 253 249 246 237 225 227 226 226 235 224 232 236 240 237 236 233 235 239 242 244 247 249 251 254 256 257 258 257 257 259 260 260 261 261 260 260 259 259 259
345 353 351 342 337 336 340 345 351 354 352 347 335 314 283 265 246 247 252 250 245 240 234 232 227 227 230 234 234 238 243 242 243 243 245 244 244 245 247 250 252 254 255 257 257 256 256 256 256 258 259 259 260 260
332 341 346 342 335 329 334 337 337 339 339 333 325 312 299 286 276 258 244 241 241 243 244 239 236 239 238 239 237 236 234 237 238 239 241 242 241 242 244 245 246 248 249 249 250 252 252 252 253 252 252 252 252 253
317 330 339 338 334 328 329 331 332 331 328 326 323 318 308 296 279 258 250 244 239 239 239 239 239 242 242 242 243 243 244 244 244 244 243 243 243 243 243 243 243 243 243 243 243 244 243 244 245 245 246 245 245 244
320 328 333 333 331 328 330 328 328 327 326 326 324 322 313 296 278 261 247 242 244 245 244 245 245 245 245 246 246 248 248 250 250 250 250 250 251 251 252 252 253 253 253 254 254 254 253 254 252 250 250 251 250 249
328 329 330 331 329 330 329 326 326 327 329 328 328 322 312 304 289 278 274 269 264 261 257 254 255 255 253 254 254 255 255 256 255 255 255 254 253 253 254 255 255 256 256 257 257 257 258 259 260 260 260 260 261 262
329 330 331 329 326 324 326 326 330 330 328 326 323 320 316 308 300 295 291 287 282 278 273 269 265 263 261 260 259 259 259 258 258 259 259 259 260 260 260 260 260 260 260 260 260 260 260 259 259 259 260 261 262 262
332 331 330 328 328 330 333 332 329 328 327 328 323 316 312 307 304 300 296 293 289 285 283 280 278 276 273 270 269 267 266 265 265 264 263 262 262 262 262 262 262 262 263 263 263 263 263 264 263 263 262 262 262 262
335 336 336 336 336 332 329 328 331 331 329 324 322 320 318 316 312 306 300 294 293 291 287 285 282 280 280 276 274 271 270 271 271 270 270 270 269 268 267 267 266 266 266 266 266 265 265 264 264 264 264 264 265 265
341 341 337 332 330 332 334 335 334 330 331 333 330 325 319 316 315 312 309 305 302 299 295 293 291 288 285 283 281 280 278 277 276 275 274 274 274 274 274 272 271 270 269 268 267 266 266 265 264 263 263 262 262 262
340 340 341 343 340 339 340 340 342 343 340 337 339 340 338 333 328 323 320 319 318 317 313 308 305 301 298 295 292 290 289 287 287 287 287 287 286 285 284 283 282 281 279 277 274 272 270 268 266 265 264 262 261 261
357 356 349 342 343 349 350 347 345 346 352 354 351 348 341 340 339 338 337 334 334 332 329 325 319 312 305 301 298 296 294 292 290 290 292 291 292 292 292 291 289 287 285 282 280 277 274 272 270 268 267 265 264 262
1 352 350 2 4 0 352 348 356 2 1 360 357 356 355 353 350 347 347 343 344 337 329 327 325 319 312 309 308 307 304 301 300 300 300 304 304 304 306 306 303 299 294 290 285 280 278 275 272 270 268 266 263 261
11 12 15 11 359 353 9 17 17 14 10 8 7 6 3 359 356 353 350 341 341 344 346 346 343 338 335 333 331 329 328 328 326 331 333 330 327 330 332 333 332 333 332 325 317 309 301 293 285 280 275 270 266 260
27 28 20 13 21 25 26 23 20 17 17 15 12 9 7 4 1 358 352 349 351 354 354 354 355 352 348 346 345 344 345 346 343 341 337 338 344 348 349 350 354 359 4 8 14 19 20 23 28 33 36 47 205 213
25 23 12 17 22 26 27 26 24 23 21 17 13 11 9 6 5 4 1 357 356 0 6 5 1 1 0 358 356 354 354 352 347 345 344 349 358 1 1 1 7 16 24 30 35 41 46 52 59 64 70 77 83 94
20 21 21 23 23 26 25 26 25 22 20 17 15 15 13 9 10 11 9 6 3 2 4 9 11 5 3 3 2 0 360 359 357 354 352 357 8 12 11 13 18 24 30 35 41 46 50 55 60 64 69 74 80 86
24 24 25 24 23 24 24 25 24 21 19 18 19 18 16 15 16 16 15 13 9 6 4 5 8 11 10 9 8 8 7 5 5 9 8 8 16 20 18 18 22 28 33 37 42 47 50 54 57 62 67 70 74 79
27 27 25 24 23 24 24 25 23 22 21 21 21 19 19 20 19 17 16 17 16 12 9 6 6 8 10 11 13 14 15 15 16 16 17 20 24 25 22 19 23 28 32 37 41 45 50 54 59 63 66 70 73 77
30 29 27 26 26 25 25 25 24 23 23 24 22 20 19 20 19 18 17 16 17 18 16 13 11 8 9 11 11 11 13 16 16 18 24 26 24 26 26 24 26 31 34 36 39 43 47 52 57 61 65 70 73 78
31 31 30 30 29 28 27 26 25 24 23 23 23 22 21 20 19 18 19 19 17 16 16 17 17 17 16 13 13 13 12 13 15 17 19 21 21 25 29 29 32 37 40 43 46 50 54 58 63 68 71 76 80 83
30 30 31 31 29 29 29 27 26 24 24 24 23 23 22 21 20 18 17 17 19 19 18 16 15 14 13 14 16 16 15 15 16 16 18 20 21 27 33 34 37 43 48 51 53 58 63 67 72 75 79 81 84 85
27 27 28 28 29 29 29 29 27 26 24 24 24 24 23 22 21 19 18 18 18 18 19 19 18 16 14 12 11 11 13 16 17 19 20 21 25 35 35 36 43 50 54 56 59 61 65 70 73 77 80 83 85 85
23 23 24 25 26 27 27 28 28 27 26 25 25 25 24 23 22 20 19 20 21 21 21 21 20 18 17 16 15 13 12 12 13 14 20 22 26 31 36 43 48 53 57 61 63 65 68 71 75 77 80 82 84 86
20 20 21 21 23 24 25 26 26 26 27 26 26 26 25 24 23 23 23 21 21 21 21 22 22 22 21 19 19 20 20 19 19 20 24 27 29 33 39 46 51 54 57 60 64 68 71 74 75 78 81 83 86 89